Location: Unspecified
(0.0000°N, 0.0000°E)
Time: 22:23:51
(UTC+00:00)

Hubble Space Telescope - Pass Details

Date: 19 July 2019
Orbit: 536 x 540 km, 28.5° (Epoch: 22 July)

Event Time Altitude Azimuth Distance (km) Brightness Sun altitude
Exits shadow 03:39:08 11° 103° (ESE) 1,693 3.8 -34.0°
Drops below altitude 10° 03:39:26 10° 100° (E) 1,782 4.0 -34.0°
Sets 03:42:05 0° 84° (E) 2,670 5.3 -33.4°
